Погода в Остапье

Украина / Полтавская область     49°32′39″N   33°46′07″E
темп.,
°C
ветер,
м/с
пор.,
м/с
влажн.,
%
обл.,
%
осадки,
мм/ч
давл.,
гПа
погр.,
м
18 мая, вт
вт1800:00+15ююз3593100 0.0 100484
03:00+14ююз2293100 0.0 100429
06:00+14ю3393100 0.0 100488
09:00+17ю4582100 0.0 1005489
12:00+20ю5668100 1.1 10041032
15:00+21ю796248 2.8 10021687
18:00+18ю597792 1.5 1002626
21:00+14юв5119131 1.8 1003323
19 мая, ср
ср1900:00+13ююв4996100 0.0 1002220
03:00+12ююв3896100 0.0 1003195
06:00+11юв3796100 0.0 1003237
09:00+16ююв567975 0.0 1003734
12:00+19ююв566118 0.9 10031479
15:00+19ю5655100 2.0 10031823
18:00+17ююз237037 0.6 1003222
21:00+12юз229278 2.4 100433
20 мая, чт
чт2000:00+11юз33925 0.7 100444
03:00+11зюз4898100 0.8 1005225
06:00+12зюз5993100 0.1 1006480
09:00+13зюз5889100 0.2 1007698
12:00+15зюз697842 0.4 10091114
15:00+17зюз6116934 0.8 10091557
18:00+16зсз5771100 0.1 1011935
21:00+12ссз3386100 0.1 101249
21 мая, пт
пт2100:00+11с3682100 0.1 1013165
03:00+10всв1294100 3.4 101594
06:00+10св3692100 0.4 1014180
09:00+13св4780100 0.5 1015367
12:00+15св6870100 0.1 1014770
15:00+17всв5768100 0.1 10141024
18:00+17св5873100 0.0 1013638
21:00+15ссв61276100 0.0 1014439
22 мая, сб
сб2200:00+13ссв61389100 0.3 1013362
03:00+12ссв5119180 0.3 1013302
06:00+12ссв51094100 0.0 1012282
09:00+15ссв588891 0.2 1012401
12:00+21ссв567165 0.0 1012866
15:00+22с666875 0.0 10121164
18:00+22ссв567514 0.0 1012681
21:00+16ссз410920 0.0 1012209